Location: ????????
(60.4333°N, 46.4710°E)
Time: 02:44:54
(UTC+00:00)

Resurs 01 Rocket - Pass Details

Date: 25 November 2020
Orbit: 634 x 644 km, 98.0° (Epoch: 19 January)

Event Time Altitude Azimuth Distance (km) Brightness Sun altitude
Exits shadow 15:09:34 12° 9° (N) 1,936 3.9 -21.5°
Drops below altitude 10° 15:10:01 10° 5° (N) 2,050 4.1 -21.6°
Sets 15:12:51 0° 346° (NNW) 2,965 5.2 -21.9°
